• In Portugal
  • List of Countries
  • For 7 days
  • Water Temperature
  • Satellite Maps
  • Weather Map
  • Weather Widgets
  • user-avatar
    Login

    Hourly Weather Klagenfurt

    Today, 24 October, Wednesday

    Time Temperature Precipitation Wind Pressure Humidity
    00:00 +7°C° 0 mm 1 mps 689 mmHg 74%
    01:00 +7°C° 0 mm 1 mps 688 mmHg 74%
    02:00 +7°C° 0 mm 1 mps 688 mmHg 73%
    03:00 +6°C° 0 mm 1 mps 688 mmHg 73%
    04:00 +6°C° 0 mm 1 mps 687 mmHg 72%
    05:00 +7°C° 0 mm 1 mps 687 mmHg 72%
    06:00 +7°C° 0 mm 1 mps 687 mmHg 72%
    07:00 +7°C° 0 mm 1 mps 687 mmHg 72%
    08:00 +9°C° 0 mm 2 mps 687 mmHg 66%
    09:00 +12°C° 0 mm 3 mps 688 mmHg 59%
    10:00 +16°C° 0 mm 3 mps 688 mmHg 53%
    11:00 +15°C° 0 mm 4 mps 688 mmHg 51%
    12:00 +17°C° 0 mm 4 mps 688 mmHg 48%
    13:00 +17°C° 0 mm 5 mps 688 mmHg 46%
    14:00 +17°C° 0 mm 4 mps 688 mmHg 51%
    15:00 +16°C° 0 mm 3 mps 688 mmHg 55%
    16:00 +15°C° 0 mm 2 mps 688 mmHg 60%
    17:00 +14°C° 0 mm 2 mps 688 mmHg 65%
    18:00 +12°C° 0 mm 2 mps 688 mmHg 70%
    19:00 +10°C° 0 mm 1 mps 689 mmHg 75%
    20:00 +10°C° 0 mm 1 mps 689 mmHg 77%
    21:00 +9°C° 0 mm 1 mps 690 mmHg 78%
    22:00 +9°C° 0 mm 1 mps 690 mmHg 80%
    23:00 +8°C° 0 mm 1 mps 690 mmHg 83%

    Tomorrow, 25 October, Thursday

    Time Temperature Precipitation Wind Pressure Humidity
    00:00 +8°C° 0 mm 1 mps 690 mmHg 85%
    01:00 +7°C° 0 mm 1 mps 690 mmHg 88%
    02:00 +7°C° 0 mm 1 mps 690 mmHg 89%
    03:00 +7°C° 0 mm 1 mps 690 mmHg 90%
    04:00 +7°C° 0 mm 1 mps 690 mmHg 91%
    05:00 +7°C° 0 mm 1 mps 690 mmHg 90%
    06:00 +7°C° 0 mm 1 mps 691 mmHg 90%
    07:00 +6°C° 0 mm 1 mps 691 mmHg 90%
    08:00 +9°C° 0 mm 1 mps 691 mmHg 81%
    09:00 +11°C° 0 mm 1 mps 691 mmHg 72%
    10:00 +13°C° 0 mm 1 mps 692 mmHg 63%
    11:00 +14°C° 0 mm 2 mps 691 mmHg 61%
    12:00 +15°C° 0 mm 2 mps 691 mmHg 59%
    13:00 +16°C° 0 mm 2 mps 691 mmHg 57%
    14:00 +16°C° 0 mm 2 mps 690 mmHg 62%
    15:00 +15°C° 0 mm 2 mps 690 mmHg 67%
    16:00 +14°C° 0 mm 2 mps 689 mmHg 73%
    17:00 +13°C° 0 mm 1 mps 689 mmHg 79%
    18:00 +11°C° 0 mm 1 mps 689 mmHg 86%
    19:00 +9°C° 0 mm 1 mps 689 mmHg 92%
    20:00 +9°C° 0 mm 1 mps 689 mmHg 93%
    21:00 +9°C° 0 mm 1 mps 689 mmHg 93%
    22:00 +9°C° 0 mm 1 mps 689 mmHg 94%
    23:00 +8°C° 0 mm 1 mps 689 mmHg 94%

    Day after tomorrow, 26 October, Friday

    Time Temperature Precipitation Wind Pressure Humidity
    00:00 +8°C° 0 mm 1 mps 689 mmHg 93%
    01:00 +8°C° 0 mm 1 mps 689 mmHg 93%
    02:00 +8°C° 0 mm 1 mps 688 mmHg 93%
    03:00 +8°C° 0 mm 1 mps 688 mmHg 92%
    04:00 +7°C° 0 mm 0 mps 688 mmHg 91%
    05:00 +7°C° 0 mm 0 mps 688 mmHg 90%
    06:00 +8°C° 0 mm 0 mps 687 mmHg 89%
    07:00 +8°C° 0 mm 0 mps 687 mmHg 89%
    08:00 +9°C° 0.1 mm 0 mps 687 mmHg 85%
    09:00 +12°C° 0.1 mm 1 mps 687 mmHg 82%
    10:00 +13°C° 0.1 mm 1 mps 687 mmHg 78%
    11:00 +14°C° 0.1 mm 1 mps 687 mmHg 75%
    12:00 +15°C° 0.1 mm 1 mps 687 mmHg 72%
    13:00 +16°C° 0.1 mm 2 mps 686 mmHg 70%
    14:00 +15°C° 0 mm 2 mps 686 mmHg 73%
    15:00 +15°C° 0 mm 2 mps 685 mmHg 76%
    16:00 +14°C° 0 mm 1 mps 685 mmHg 79%
    17:00 +13°C° 0 mm 1 mps 685 mmHg 85%
    18:00 +11°C° 0 mm 1 mps 685 mmHg 90%
    19:00 +10°C° 0 mm 1 mps 685 mmHg 95%
    20:00 +10°C° 0 mm 1 mps 685 mmHg 95%
    21:00 +10°C° 0 mm 1 mps 685 mmHg 95%
    22:00 +9°C° 0 mm 1 mps 685 mmHg 95%
    23:00 +9°C° 0 mm 1 mps 684 mmHg 95%

    27 October, Saturday

    Time Temperature Precipitation Wind Pressure Humidity
    00:00 +9°C° 0 mm 1 mps 684 mmHg 95%
    01:00 +9°C° 0 mm 1 mps 684 mmHg 94%
    02:00 +10°C° 0.1 mm 1 mps 684 mmHg 94%
    03:00 +10°C° 0.1 mm 1 mps 684 mmHg 95%
    04:00 +9°C° 0.1 mm 0 mps 683 mmHg 95%
    05:00 +10°C° 0.5 mm 1 mps 683 mmHg 95%
    06:00 +10°C° 0.5 mm 1 mps 683 mmHg 95%
    07:00 +10°C° 0.5 mm 1 mps 683 mmHg 96%
    08:00 +10°C° 1.1 mm 1 mps 684 mmHg 94%
    09:00 +11°C° 1.1 mm 1 mps 684 mmHg 93%
    10:00 +10°C° 1.1 mm 2 mps 684 mmHg 91%
    11:00 +10°C° 4 mm 2 mps 684 mmHg 92%
    12:00 +9°C° 4 mm 2 mps 683 mmHg 93%
    13:00 +9°C° 4 mm 2 mps 683 mmHg 94%
    14:00 +8°C° 5.3 mm 2 mps 683 mmHg 94%
    15:00 +7°C° 5.3 mm 2 mps 682 mmHg 95%
    16:00 +6°C° 5.3 mm 2 mps 682 mmHg 95%
    17:00 +6°C° 4.4 mm 2 mps 682 mmHg 95%
    18:00 +6°C° 4.4 mm 2 mps 682 mmHg 96%
    19:00 +5°C° 4.4 mm 2 mps 682 mmHg 96%
    20:00 +5°C° 4.3 mm 2 mps 682 mmHg 96%
    21:00 +6°C° 4.3 mm 1 mps 682 mmHg 96%
    22:00 +5°C° 4.3 mm 1 mps 682 mmHg 96%
    23:00 +5°C° 4 mm 1 mps 682 mmHg 96%

    28 October, Sunday

    Time Temperature Precipitation Wind Pressure Humidity
    00:00 +4°C° 4 mm 2 mps 681 mmHg 96%
    01:00 +4°C° 4 mm 2 mps 681 mmHg 96%
    02:00 +4°C° 3.2 mm 2 mps 681 mmHg 97%
    03:00 +4°C° 3.2 mm 2 mps 681 mmHg 97%
    04:00 +4°C° 3.2 mm 2 mps 680 mmHg 97%
    05:00 +5°C° 3.1 mm 2 mps 680 mmHg 97%
    06:00 +5°C° 3.1 mm 2 mps 680 mmHg 97%
    07:00 +5°C° 3.1 mm 2 mps 680 mmHg 97%
    08:00 +5°C° 2.3 mm 2 mps 680 mmHg 96%
    09:00 +6°C° 2.3 mm 2 mps 679 mmHg 96%
    10:00 +6°C° 2.3 mm 2 mps 679 mmHg 96%
    11:00 +6°C° 3.1 mm 2 mps 679 mmHg 96%
    12:00 +7°C° 3.1 mm 2 mps 679 mmHg 96%
    13:00 +7°C° 3.1 mm 2 mps 678 mmHg 96%
    14:00 +7°C° 5.3 mm 2 mps 678 mmHg 96%
    15:00 +7°C° 5.3 mm 2 mps 678 mmHg 97%
    16:00 +7°C° 5.3 mm 2 mps 677 mmHg 97%
    17:00 +8°C° 3.7 mm 2 mps 677 mmHg 97%
    18:00 +8°C° 3.7 mm 2 mps 677 mmHg 97%
    19:00 +8°C° 3.7 mm 2 mps 677 mmHg 97%
    20:00 +8°C° 4.2 mm 2 mps 677 mmHg 97%
    21:00 +9°C° 4.2 mm 2 mps 677 mmHg 97%
    22:00 +9°C° 4.2 mm 2 mps 677 mmHg 97%
    23:00 +10°C° 3.7 mm 1 mps 677 mmHg 97%

    29 October, Monday

    Time Temperature Precipitation Wind Pressure Humidity
    00:00 +10°C° 3.7 mm 1 mps 676 mmHg 97%
    01:00 +10°C° 3.7 mm 1 mps 676 mmHg 97%
    02:00 +10°C° 1.1 mm 1 mps 676 mmHg 97%
    03:00 +10°C° 1.1 mm 1 mps 676 mmHg 97%
    04:00 +10°C° 1.1 mm 1 mps 676 mmHg 97%
    05:00 +10°C° 0.5 mm 1 mps 676 mmHg 97%
    06:00 +10°C° 0.5 mm 1 mps 676 mmHg 97%
    07:00 +10°C° 0.5 mm 1 mps 676 mmHg 97%
    08:00 +11°C° 0.5 mm 1 mps 677 mmHg 95%
    09:00 +12°C° 0.5 mm 1 mps 677 mmHg 93%
    10:00 +12°C° 0.5 mm 1 mps 677 mmHg 90%
    11:00 +12°C° 0.8 mm 1 mps 677 mmHg 90%
    12:00 +12°C° 0.8 mm 2 mps 677 mmHg 90%
    13:00 +12°C° 0.8 mm 2 mps 677 mmHg 90%
    14:00 +12°C° 0.4 mm 2 mps 677 mmHg 90%
    15:00 +10°C° 0.4 mm 2 mps 677 mmHg 91%
    16:00 +11°C° 0.4 mm 1 mps 677 mmHg 91%
    17:00 +10°C° 1.2 mm 1 mps 677 mmHg 93%
    18:00 +9°C° 1.2 mm 1 mps 677 mmHg 94%
    19:00 +9°C° 1.2 mm 1 mps 677 mmHg 96%
    20:00 +9°C° 2.4 mm 1 mps 677 mmHg 96%
    21:00 +8°C° 2.4 mm 1 mps 677 mmHg 96%
    22:00 +8°C° 2.4 mm 1 mps 677 mmHg 96%
    23:00 +8°C° 0.8 mm 1 mps 677 mmHg 96%

    30 October, Tuesday

    Time Temperature Precipitation Wind Pressure Humidity
    00:00 +8°C° 0.8 mm 1 mps 677 mmHg 96%
    01:00 +8°C° 0.8 mm 1 mps 677 mmHg 96%
    02:00 +7°C° 0.2 mm 1 mps 677 mmHg 96%
    03:00 +7°C° 0.2 mm 1 mps 677 mmHg 96%
    04:00 +7°C° 0.2 mm 1 mps 677 mmHg 96%
    05:00 +6°C° 0.1 mm 1 mps 677 mmHg 96%
    06:00 +6°C° 0.1 mm 1 mps 677 mmHg 96%
    07:00 +6°C° 0.1 mm 1 mps 677 mmHg 96%
    08:00 +7°C° 0.1 mm 1 mps 678 mmHg 93%
    09:00 +8°C° 0.1 mm 1 mps 679 mmHg 89%
    10:00 +9°C° 0.1 mm 1 mps 679 mmHg 86%
    11:00 +9°C° 0.2 mm 1 mps 679 mmHg 83%
    12:00 +10°C° 0.2 mm 1 mps 679 mmHg 80%
    13:00 +10°C° 0.2 mm 1 mps 679 mmHg 77%
    14:00 +10°C° 0.2 mm 1 mps 680 mmHg 80%
    15:00 +9°C° 0.2 mm 1 mps 680 mmHg 83%
    16:00 +9°C° 0.2 mm 1 mps 680 mmHg 86%
    17:00 +8°C° 0 mm 1 mps 680 mmHg 88%
    18:00 +7°C° 0 mm 1 mps 680 mmHg 90%
    19:00 +6°C° 0 mm 1 mps 681 mmHg 93%
    20:00 +6°C° 0 mm 1 mps 681 mmHg 93%
    21:00 +5°C° 0 mm 1 mps 682 mmHg 94%
    22:00 +5°C° 0 mm 1 mps 682 mmHg 95%
    23:00 +4°C° 0 mm 1 mps 683 mmHg 95%
    Show more